Tracking 29606 objects as of 19-Sep-2024
HD Live streaming from Space Station
objects crossing your sky now

STARLINK-32075

Track STARLINK-32075 now!
10-day predictions
STARLINK-32075 is classified as:


NORAD ID: 60345
Int'l Code: 2024-136S
Perigee: 453.8 km
Apogee: 455.0 km
Inclination: 53.2 °
Period: 93.5 minutes
Semi major axis: 6825 km
RCS: Unknown
Launch date: August 2, 2024
Source: United States (US)
Launch site: AIR FORCE EASTERN TEST RANGE (AFETR)
Your satellite tracking list
Your tracking list is empty




NASA's NSSDC Master Catalog

Two Line Element Set (TLE):
1 60345U 24136S   24262.55901245 -.00002215  00000-0 -45448-4 0  9992
2 60345  53.1622  50.8406 0000851  42.9209 317.1862 15.39605277  7428
Source of the keplerian elements: AFSPC